Погода в Шебинкарахисаре

Турция     40°17′18″N   38°25′14″E
темп.,
°C
ветер,
м/с
пор.,
м/с
влажн.,
%
обл.,
%
осадки,
мм/ч
давл.,
гПа
погр.,
м
24 октября, вс
вс2400:00+8св22530 0.0 102113
03:00+7всв11540 0.0 102110
06:00+6в11595 0.0 102110
09:00+10ю1147100 0.0 1020222
12:00+14юз22305 0.0 1019701
15:00+16з232130 0.0 1016947
18:00+12ююв112999 0.0 101710
21:00+8ссв457522 0.0 102089
25 октября, пн
пн2500:00+7ссв2377100 0.0 102281
03:00+6ссв3581100 0.0 1023476
06:00+5с2387100 0.3 1025535
09:00+5с3478100 0.4 1026635
12:00+6с446180 0.1 10261133
15:00+6с435520 0.1 1025972
18:00+3с34634 0.0 1028270
21:00+1ссв22681 0.0 102958
26 октября, вт
вт2600:000ссв23732 0.0 103049
03:00−1св33701 0.0 103047
06:00−2св22690 0.0 103023
09:00+1ююв11530 0.0 1029376
12:00+6юз12340 0.0 1025705
15:00+9юз21280 0.0 1021693
18:00+5сз11450 0.0 102210
21:00+4ссв11490 0.0 102310
27 октября, ср
ср2700:00+3всв11460 0.0 102310
03:00+3св22400 0.0 102311
06:00+2св22350 0.0 102412
09:00+7всв11260 0.0 1023195
12:00+12юз11190 0.0 1021615
15:00+14з11160 0.0 1018770
18:00+9с11240 0.0 101910
21:00+8всв22240 0.0 102010
28 октября, чт
чт2800:00+7всв22240 0.0 102010
03:00+6всв22260 0.0 102111
06:00+5всв22280 0.0 102111
09:00+10всв01220 0.0 1021145
12:00+14зюз21210 0.0 1020840
15:00+15з11200 0.0 10181431
18:00+10с22360 0.0 101917
21:00+8св32540 0.0 102120